TimeCST,TemperatureF,Dew PointF,Humidity,Sea Level PressureIn,VisibilityMPH,Wind Direction,Wind SpeedMPH,Gust SpeedMPH,PrecipitationIn,Events,Conditions,WindDirDegrees,DateUTC
12:55 AM,57.9,40.5,52,30.27,10.0,Calm,Calm,-,N/A,,Overcast,0,2012-11-16 06:55:00
1:55 AM,56.7,44.2,63,30.27,10.0,Calm,Calm,-,N/A,,Mostly Cloudy,0,2012-11-16 07:55:00
2:55 AM,56.5,43.3,61,30.27,10.0,Calm,Calm,-,N/A,,Overcast,0,2012-11-16 08:55:00
3:55 AM,57.6,39.4,51,30.27,10.0,NNE,3.5,-,N/A,,Overcast,20,2012-11-16 09:55:00
4:55 AM,56.8,38.7,51,30.27,10.0,NE,4.6,-,N/A,,Mostly Cloudy,40,2012-11-16 10:55:00
5:55 AM,56.3,39.0,52,30.28,10.0,NNE,5.8,-,N/A,,Mostly Cloudy,30,2012-11-16 11:55:00
6:55 AM,55.8,38.1,52,30.30,10.0,NNE,5.8,-,N/A,,Overcast,30,2012-11-16 12:55:00
7:55 AM,55.8,37.4,50,30.32,10.0,ENE,5.8,-,N/A,,Mostly Cloudy,60,2012-11-16 13:55:00
8:55 AM,55.8,37.6,51,30.35,10.0,NE,10.4,-,N/A,,Mostly Cloudy,50,2012-11-16 14:55:00
9:55 AM,61.0,36.1,40,30.36,10.0,NE,11.5,-,N/A,,Mostly Cloudy,50,2012-11-16 15:55:00
10:55 AM,63.5,36.0,36,30.35,10.0,NE,8.1,-,N/A,,Partly Cloudy,40,2012-11-16 16:55:00
11:55 AM,66.4,36.1,33,30.34,10.0,ENE,11.5,-,N/A,,Clear,70,2012-11-16 17:55:00
12:55 PM,68.2,36.7,31,30.30,10.0,ENE,13.8,19.6,N/A,,Clear,60,2012-11-16 18:55:00
1:55 PM,68.7,37.6,32,30.27,10.0,NE,9.2,-,N/A,,Clear,40,2012-11-16 19:55:00
2:55 PM,68.9,36.5,30,30.26,10.0,ENE,12.7,-,N/A,,Clear,60,2012-11-16 20:55:00
3:55 PM,68.4,36.5,31,30.26,10.0,ENE,10.4,-,N/A,,Clear,60,2012-11-16 21:55:00
4:55 PM,66.0,34.9,32,30.27,10.0,East,11.5,-,N/A,,Clear,80,2012-11-16 22:55:00
5:55 PM,60.4,32.7,35,30.28,10.0,NE,5.8,-,N/A,,Clear,50,2012-11-16 23:55:00
6:55 PM,57.9,31.1,36,30.30,10.0,ENE,4.6,-,N/A,,Clear,60,2012-11-17 00:55:00
7:55 PM,56.1,30.2,37,30.32,10.0,NE,4.6,-,N/A,,Clear,40,2012-11-17 01:55:00
8:55 PM,53.8,30.7,41,30.33,10.0,NE,5.8,-,N/A,,Clear,50,2012-11-17 02:55:00
9:55 PM,52.2,30.9,44,30.33,10.0,NE,4.6,-,N/A,,Clear,50,2012-11-17 03:55:00
10:55 PM,51.6,30.6,45,30.34,10.0,NE,4.6,-,N/A,,Clear,50,2012-11-17 04:55:00
11:55 PM,50.4,30.7,47,30.34,10.0,NNE,3.5,-,N/A,,Clear,20,2012-11-17 05:55:00